Location: Sibbertoft
(52.4361°N, 1.0300°W)
Time: 08:41:00
(UTC+01:00)

OTV 5 (USA 277) - Visible Passes

Search period start: 20 June 2018 00:00
Search period end: 30 June 2018 00:00
Orbit: 313 x 320 km, 54.5° (Epoch: 18 June)

Date Brightness Start Highest point End Pass type
(mag) Time Alt. Az. Time Alt. Az. Time Alt. Az.
20 Jun ? 01:17:31 10° WNW 01:20:14 71° NNE 01:22:56 10° E visible
20 Jun ? 02:52:00 10° W 02:54:23 28° SW 02:56:47 10° SSE visible
20 Jun ? 22:23:06 10° WSW 22:25:48 83° NNW 22:28:32 10° ENE visible
20 Jun ? 23:57:37 10° WNW 00:00:17 51° N 00:02:57 10° E visible
21 Jun ? 01:31:59 10° WNW 01:34:42 73° SSW 01:37:24 10° ESE visible
21 Jun ? 03:06:59 10° WSW 03:08:21 15° SW 03:08:21 15° SW visible
21 Jun ? 22:37:38 10° W 22:40:19 59° N 22:43:00 10° ENE visible
22 Jun ? 00:12:07 10° WNW 00:14:49 60° N 00:17:30 10° E visible
22 Jun ? 01:46:30 10° W 01:49:04 39° SSW 01:49:35 34° S visible
22 Jun ? 22:52:11 10° W 22:54:51 51° N 22:57:30 10° ENE visible
23 Jun ? 00:26:35 10° WNW 00:29:18 87° NNE 00:31:31 14° ESE visible
23 Jun ? 02:01:14 10° W 02:02:20 17° WSW 02:02:20 17° WSW visible
23 Jun ? 23:06:43 10° WNW 23:09:23 54° N 23:12:04 10° E visible
24 Jun ? 00:41:04 10° WNW 00:43:44 54° SSW 00:44:33 35° SSE visible
24 Jun ? 23:21:11 10° WNW 23:23:54 70° NNE 23:26:36 10° E visible
25 Jun ? 00:55:40 10° W 00:57:46 27° SW 00:57:46 27° SW visible
25 Jun ? 23:35:40 10° WNW 23:38:22 74° SSW 23:40:15 18° ESE visible
26 Jun ? 01:10:38 10° W 01:11:06 12° WSW 01:11:06 12° WSW visible
26 Jun ? 23:50:11 10° W 23:52:45 39° SSW 23:53:40 28° SSE visible
27 Jun ? 22:30:16 10° WNW 22:32:58 86° NNE 22:35:41 10° ESE visible
28 Jun ? 00:04:54 10° W 00:07:02 21° SW 00:07:07 21° SW visible
28 Jun ? 22:44:44 10° WNW 22:47:24 55° SSW 22:49:48 12° SE visible
29 Jun ? 00:20:33 10° WSW 00:20:39 10° WSW 00:20:39 10° WSW visible
29 Jun ? 22:59:20 10° W 23:01:45 29° SSW 23:03:22 16° SSE visible
